SL-16 DEB, 43369

Orbit data source: Space-Track

SL-16 DEB, 43369 is space debris in SSO originally from a launch on Mon, 10 Dec 2001 UTC launched from the Tyuratam Missile And Space Complex (TTMTR). Debris objects in space refer to the collection of defunct objects orbiting the Earth. Examples of debris include non-operational satellites, rocket bodies, and fragments generated from explosions, collisions, or faulty payload assembly.

Loading next visibility...
Identifier
43369, 2001-056N
Orbit
SSO
Country
Flag of CISCIS
Related business
Manufacturer
Unknown
Mission
Spacecraft
Bus & Motor
Unknown
Mass
Unknown
Launch date (UTC)
2001-12-10 (24 years ago)
Launch vehicle
Unknown
Launch site
Tyuratam Missile And Space Complex (TTMTR)
Object type
Payload
Rocket body
Debris
Shape & HBR
Unknown
Radar Cross Section
Small (<0.1 m²)

Expand to show TLE details & history
Last TLE update: 1 year ago

TLE from 1 year ago
0 SL-16 DEB
1 43369U 01056N   24205.35363231  .00009507  00000-0  40251-2 0  9991
2 43369  99.3226  52.6224 0082539 151.4412  24.2737 14.23840765531873
Epoch: 2024-07-23T08:29Z
TLE epoch observation values (Epoch: 2024-07-23T08:29:13.831Z)
Latitude
3.74783°
Longitude
164.35437°
Altitude
760.854 km
Speed
7.502 km/s
True Right ascension
15h 32m 56s
True Declination
3° 43' 32"
Sunlit
Object was in daylight at epoch
Visualization orbit readout
Latitude
Unknown
Longitude
Unknown
Altitude
Unknown
Speed
Unknown
Apparent Right ascension
Unknown
Apparent Declination
Unknown
Sunlit
N/A
Visualization observer readout
Local Sidereal Time
16:38:10
Azimuth
Unknown
Elevation
Unknown
Doppler factor
Unknown
Orbital elements
Apogee altitude
868.903 km
Perigee altitude
750.25 km
Semi-major axis
7,187.713 km
Eccentricity
0.00825
Inclination
99.3226°
RAAN
52.6224°
Arg. of periapsis
151.4412°
True anomaly
24.66621°
Mean anomaly
24.2737°
Eccentric anomaly
24.46959°
Mean motion
3.5617 °/min
Orbital period
101.08 mins
BSTAR
0.0040251
Loading maneuver chart data...
Computing Atmospheric mass density...
Loading historical data...
Loading historical data...
Loading historical data...
Loading historical data...
Loading historical data...
Loading historical data...
Loading historical data...

Documentation

Showing up to 5 results
|